Le nostre stazioni meteo in Italia

Pubblicità
Il mio iltempo24.it
Grazzanise, Italia (16253): Temperatura & dewpoint: 14.01.2018 06:00:00 - 20.01.2018 06:00:00 (CET)Grazzanise, Italia (16253): velocità del vento: 14.01.2018 06:00:00 - 20.01.2018 06:00:00 (CET)Grazzanise, Italia (16253): direzione del vento: 14.01.2018 06:00:00 - 20.01.2018 06:00:00 (CET)Grazzanise, Italia (16253): reduced air pressure: 14.01.2018 06:00:00 - 20.01.2018 06:00:00 (CET)Grazzanise, Italia (16253): visibility: 14.01.2018 06:00:00 - 20.01.2018 06:00:00 (CET)Grazzanise, Italia (16253): ore di luce: 14.01.2018 06:00:00 - 20.01.2018 06:00:00 (CET)
Data & Tempo tt [°C] td [°C] ff [km/h] ff [kn] dd ppp [hPa] vv [km] sd [min]
20.01.2018 06:00:00 - - - - - - - -
20.01.2018 05:00:00 10,0 8,0 - - - - 10 -
20.01.2018 04:00:00 10,6 8,4 5 3 SSO 1012,2 10 -
20.01.2018 03:00:00 12,0 10,0 - - - - 10 -
20.01.2018 02:00:00 12,0 10,0 - - - - 10 -
20.01.2018 01:00:00 13,0 11,2 9 5 SSE 1013,2 10 -
20.01.2018 00:00:00 13,0 11,0 - - - - 10 -
19.01.2018 23:00:00 12,0 10,0 - - - - 10 -
19.01.2018 22:00:00 12,4 10,8 8 4 SSO 1014,0 15 -
19.01.2018 21:00:00 13,0 11,0 - - - - 10 -
19.01.2018 20:00:00 13,0 11,0 - - - - 10 -
19.01.2018 19:00:00 13,2 12,3 5 3 S 1013,5 15 -
19.01.2018 18:00:00 14,0 12,0 - - - - 10 -
19.01.2018 17:00:00 14,0 12,0 - - - - 10 -
19.01.2018 16:00:00 14,2 12,2 13 7 SSO 1013,8 15 0
19.01.2018 15:00:00 14,0 12,0 - - - - 10 -
19.01.2018 14:00:00 15,0 12,0 - - - - 10 -
19.01.2018 13:00:00 14,8 12,5 22 12 SSO 1015,6 18 6
19.01.2018 12:00:00 15,0 12,0 - - - - 10 -
19.01.2018 11:00:00 14,0 11,0 - - - - 10 -
19.01.2018 10:00:00 13,4 10,6 15 8 SSO 1016,0 20 0
19.01.2018 09:00:00 12,0 10,0 - - - - 10 -
19.01.2018 08:00:00 11,0 8,0 - - - - 10 -
19.01.2018 07:00:00 10,2 7,8 8 4 ESE 1015,7 10 -
19.01.2018 06:00:00 10,0 8,0 - - - - 10 -
19.01.2018 05:00:00 10,0 8,0 - - - - 10 -
19.01.2018 04:00:00 10,4 8,2 8 4 SSE 1017,3 10 -
19.01.2018 03:00:00 - - - - - - - -
19.01.2018 02:00:00 11,0 10,0 - - - - 10 -
19.01.2018 01:00:00 10,6 9,8 13 7 SSO 1018,3 10 -
19.01.2018 00:00:00 11,0 10,0 - - - - 10 -
18.01.2018 23:00:00 11,0 10,0 - - - - 10 -
18.01.2018 22:00:00 10,6 9,9 5 3 NNO 1019,5 20 -
18.01.2018 21:00:00 10,0 10,0 - - - - 10 -
18.01.2018 20:00:00 11,0 10,0 - - - - 10 -
18.01.2018 19:00:00 10,0 7,9 8 4 SSO 1020,4 20 -
18.01.2018 18:00:00 10,0 7,0 - - - - 10 -
18.01.2018 17:00:00 12,0 7,0 - - - - 10 -
18.01.2018 16:00:00 13,8 1,4 9 5 SSO 1021,1 30 48
18.01.2018 15:00:00 15,0 4,0 - - - - 10 -
18.01.2018 14:00:00 15,0 -1,0 - - - - 10 -
18.01.2018 13:00:00 14,0 -4,2 8 4 SSO 1021,1 30 60
18.01.2018 12:00:00 12,0 4,0 - - - - 10 -
18.01.2018 11:00:00 10,0 5,0 - - - - 10 -
18.01.2018 10:00:00 7,6 5,2 0 0 N 1021,3 30 60
18.01.2018 09:00:00 4,0 3,0 - - - - 10 -
18.01.2018 08:00:00 2,0 1,0 - - - - 10 -
18.01.2018 07:00:00 3,2 0,6 9 5 ENE 1019,2 20 -
18.01.2018 06:00:00 6,0 0,0 - - - - 10 -
18.01.2018 05:00:00 7,0 1,0 - - - - 10 -
18.01.2018 04:00:00 7,0 0,4 2 1 ESE 1017,5 10 -
18.01.2018 03:00:00 9,0 2,0 - - - - 10 -
18.01.2018 02:00:00 8,0 4,0 - - - - 10 -
18.01.2018 01:00:00 8,4 4,2 9 5 O 1015,8 15 -
18.01.2018 00:00:00 9,0 6,0 - - - - 10 -
17.01.2018 23:00:00 9,0 6,0 - - - - 10 -
17.01.2018 22:00:00 8,8 7,1 9 5 NNO 1012,0 18 -
17.01.2018 21:00:00 10,0 8,0 - - - - 10 -
17.01.2018 20:00:00 12,0 7,0 - - - - 10 -
17.01.2018 19:00:00 15,0 8,9 26 14 O 1006,3 20 -
17.01.2018 18:00:00 15,0 8,0 - - - - 10 -
17.01.2018 17:00:00 16,0 10,0 - - - - 10 -
17.01.2018 16:00:00 17,0 7,9 29 16 O 1003,2 15 60
17.01.2018 15:00:00 17,0 9,0 - - - - 10 -
17.01.2018 14:00:00 18,0 14,0 - - - - 10 -
17.01.2018 13:00:00 17,0 13,1 48 26 OSO 1002,4 15 0
17.01.2018 12:00:00 17,0 14,0 - - - - 10 -
17.01.2018 11:00:00 17,0 14,0 - - - - 10 -
17.01.2018 10:00:00 16,6 13,1 34 18 OSO 1005,3 12 0
17.01.2018 09:00:00 17,0 13,0 - - - - 10 -
17.01.2018 08:00:00 16,0 13,0 - - - - 10 -
17.01.2018 07:00:00 15,6 13,1 29 16 OSO 1006,2 12 -
17.01.2018 06:00:00 15,0 14,0 - - - - 10 -
17.01.2018 05:00:00 15,0 14,0 - - - - 10 -
17.01.2018 04:00:00 15,4 14,4 31 17 SO 1008,2 10 -
17.01.2018 03:00:00 15,0 14,0 - - - - 10 -
17.01.2018 02:00:00 15,0 14,0 - - - - 10 -
17.01.2018 01:00:00 15,0 14,2 18 10 OSO 1011,2 10 -
17.01.2018 00:00:00 15,0 15,0 - - - - 10 -
16.01.2018 23:00:00 15,0 15,0 - - - - 10 -
16.01.2018 22:00:00 15,0 14,5 31 17 SO 1012,4 10 -
16.01.2018 21:00:00 15,0 15,0 - - - - 10 -
16.01.2018 20:00:00 15,0 14,0 - - - - 10 -
16.01.2018 19:00:00 15,2 12,9 22 12 SO 1014,0 12 -
16.01.2018 18:00:00 15,0 13,0 - - - - 10 -
16.01.2018 17:00:00 15,0 13,0 - - - - 8 -
16.01.2018 16:00:00 14,6 12,5 24 13 OSO 1015,3 7 0
16.01.2018 15:00:00 14,0 14,0 - - - - 8 -
16.01.2018 14:00:00 14,0 14,0 - - - - 9 -
16.01.2018 13:00:00 15,2 12,7 31 17 OSO 1017,0 8 0
16.01.2018 12:00:00 15,0 11,0 - - - - 10 -
16.01.2018 11:00:00 14,0 11,0 - - - - 8 -
16.01.2018 10:00:00 11,4 8,8 8 4 ESE 1019,0 10 -
16.01.2018 09:00:00 10,0 7,0 - - - - 4,2 -
16.01.2018 08:00:00 9,0 7,0 - - - - 6 -
16.01.2018 07:00:00 8,4 6,0 11 6 E 1018,3 8 -
16.01.2018 06:00:00 8,0 6,0 - - - - 7 -
16.01.2018 05:00:00 8,0 5,0 - - - - 5 -
16.01.2018 04:00:00 7,0 4,8 4 2 ONO 1021,2 10 -
16.01.2018 03:00:00 8,0 6,0 - - - - 3,7 -
16.01.2018 02:00:00 8,0 6,0 - - - - 3,5 -
16.01.2018 01:00:00 8,4 6,0 13 7 NNO 1021,3 4,0 -
16.01.2018 00:00:00 10,0 7,0 - - - - 7 -
15.01.2018 23:00:00 11,0 9,0 - - - - 10 -
15.01.2018 22:00:00 11,0 8,6 5 3 E 1022,3 10 -
15.01.2018 21:00:00 11,0 10,0 - - - - 10 -
15.01.2018 20:00:00 11,0 10,0 - - - - 10 -
15.01.2018 19:00:00 12,2 11,7 2 1 N 1021,7 11 -
15.01.2018 18:00:00 13,0 12,0 - - - - 10 -
15.01.2018 17:00:00 15,0 13,0 - - - - 10 -
15.01.2018 16:00:00 16,4 11,4 5 3 SSE 1021,2 16 60
15.01.2018 15:00:00 17,0 11,0 - - - - 10 -
15.01.2018 14:00:00 16,0 11,0 - - - - 10 -
15.01.2018 13:00:00 15,4 11,4 8 4 ENE 1022,4 12 36
15.01.2018 12:00:00 13,0 10,0 - - - - 10 -
15.01.2018 11:00:00 11,0 9,0 - - - - 7 -
15.01.2018 10:00:00 10,0 7,9 11 6 NNE 1022,7 6 0
15.01.2018 09:00:00 10,0 8,0 - - - - 4,0 -
15.01.2018 08:00:00 10,0 8,0 - - - - 4,0 -
15.01.2018 07:00:00 9,8 7,7 11 6 ENE 1021,6 6 -
15.01.2018 06:00:00 9,0 8,0 - - - - 6 -
15.01.2018 05:00:00 9,0 7,0 - - - - 8 -
15.01.2018 04:00:00 9,0 7,0 0 0 N 1022,3 8 -
15.01.2018 03:00:00 8,0 6,0 - - - - 8 -
15.01.2018 02:00:00 8,0 6,0 - - - - 8 -
15.01.2018 01:00:00 7,4 5,9 8 4 NNE 1022,1 8 -
15.01.2018 00:00:00 7,0 5,0 - - - - 8 -
14.01.2018 23:00:00 7,0 5,0 - - - - 8 -
14.01.2018 22:00:00 7,4 6,0 0 0 N 1021,5 10 -
14.01.2018 21:00:00 8,0 7,0 - - - - 10 -
14.01.2018 20:00:00 9,0 8,0 - - - - 10 -
14.01.2018 19:00:00 9,4 9,1 4 2 SSE 1021,3 10 -
14.01.2018 18:00:00 10,0 10,0 - - - - 10 -
14.01.2018 17:00:00 13,0 11,0 - - - - 10 -
14.01.2018 16:00:00 16,0 11,0 8 4 OSO 1019,5 10 60
14.01.2018 15:00:00 16,0 11,0 - - - - 10 -
14.01.2018 14:00:00 15,0 10,0 - - - - 10 -
14.01.2018 13:00:00 14,6 9,6 9 5 NNE 1019,8 10 30
14.01.2018 12:00:00 13,0 9,0 - - - - 10 -
14.01.2018 11:00:00 11,0 8,0 - - - - 10 -
14.01.2018 10:00:00 10,4 9,2 0 0 N 1020,0 10 12
14.01.2018 09:00:00 8,0 7,0 - - - - 10 -
14.01.2018 08:00:00 7,0 7,0 - - - - 10 -
14.01.2018 07:00:00 6,0 5,7 9 5 N 1019,0 10 -
14.01.2018 06:00:00 8,0 6,0 - - - - 10 -

tt = Temperatura
td = dewpoint
ff = velocità del vento
dd = direzione del vento
ppp = reduced air pressure
vv = visibility
sd = ore di luce

Stazioni seguenti

WeatherPro
AMSI
MeteoEarth